Regional Weather Roundup
Issued by NWS

Home | Current Version | Previous Version | Graphics & Text | Print | Product List | Glossary On
Versions: 1 2 3 4 5 6 7 8 9 10 11 12 13 14 15 16 17 18 19 20 21 22 23 24 25 26 27 28 29 30 31 32 33 34 35 36 37 38 39 40 41 42 43 44 45 46 47 48 49 50
000
ASUS43 KTOP 241208
RWRKS

WEATHER ROUNDUP FOR KANSAS
NATIONAL WEATHER SERVICE GOODLAND KS
700 AM CDT THU JUL 24 2014

NOTE:  "FAIR" INDICATES FEW OR NO CLOUDS BELOW 12,000 FEET WITH NO
SIGNIFICANT WEATHER AND/OR OBSTRUCTIONS TO VISIBILITY.

KSZ001>006-013>018-027>032-041>047-241300-
NORTHWEST KANSAS

CITY           SKY/WX    TMP DP  RH WIND       PRES   REMARKS
GOODLAND       CLEAR     68  67  96 S16       30.09F FOG
6HR MIN TEMP:  67; 6HR MAX TEMP:  70;

HAYS           CLEAR     43 N/A N/A SE7       30.09F
HILL CITY      CLEAR     65  63  93 E6        30.09S
6HR MIN TEMP:  65; 6HR MAX TEMP:  69;

RUSSELL        CLEAR     66  62  87 SE8       30.09S
6HR MIN TEMP:  65; 6HR MAX TEMP:  72;

$$

KSZ061>065-074>080-084>089-241300-
SOUTHWEST KANSAS

CITY           SKY/WX    TMP DP  RH WIND       PRES   REMARKS
DODGE CITY     CLEAR     68  64  87 S9        30.11S
6HR MIN TEMP:  68; 6HR MAX TEMP:  74;

ELKHART          N/A     69  58  68 SW6         N/A
GARDEN CITY    MOCLDY    68  66  93 S9        30.11F FOG
6HR MIN TEMP:  67; 6HR MAX TEMP:  75;

GREAT BEND     CLEAR     66  63  88 SE7       30.09S
LIBERAL        CLEAR     70  64  83 S7        30.14S
PRATT          CLEAR     70  64  83 SE6       30.12R
$$

KSZ066>073-081>083-090>101-241300-
SOUTHEAST KANSAS

CITY           SKY/WX    TMP DP  RH WIND       PRES   REMARKS
CHANUTE        CLEAR     68  63  84 E8        30.11R
6HR MIN TEMP:  67; 6HR MAX TEMP:  73;

COFFEYVILLE    CLEAR     68  66  93 NE5       30.09R
6HR MIN TEMP:  67; 6HR MAX TEMP:  71;

HUTCHINSON     CLEAR     68  63  84 E6        30.11R
6HR MIN TEMP:  66; 6HR MAX TEMP:  71;

MEDICINE LODGE   N/A     71  68  90 E6        30.09R
NEWTON         CLEAR     66  59  77 E7        30.15R
PARSONS        CLEAR     68  64  87 VRB5      30.11R
6HR MIN TEMP:  67; 6HR MAX TEMP:  72;

WICHITA INTL   PTCLDY    70  64  81 E7        30.10R
6HR MIN TEMP:  69; 6HR MAX TEMP:  75;

WICHITA JABRA  CLEAR     64  64 100 CALM      30.11R
6HR MIN TEMP:  63; 6HR MAX TEMP:  72;

WICHITA MCCONL CLEAR     69  67  94 E9        30.11R
WINFIELD       CLEAR     67  65  93 CALM      30.10R
6HR MIN TEMP:  67; 6HR MAX TEMP:  75;

$$

KSZ007>012-019>026-033>040-048>060-102>105-241300-
NORTHEAST KANSAS

CITY           SKY/WX    TMP DP  RH WIND       PRES   REMARKS
CONCORDIA      CLEAR     65  64  97 VRB5      30.11S
6HR MIN TEMP:  64; 6HR MAX TEMP:  68;

EMPORIA        CLEAR     64  62  93 E7        30.12R
6HR MIN TEMP:  63; 6HR MAX TEMP:  69;

LAWRENCE       CLEAR     65  60  84 CALM      30.14R
6HR MIN TEMP:  64; 6HR MAX TEMP:  71;

MANHATTAN      CLEAR     67  63  87 NE5       30.12S
6HR MIN TEMP:  65; 6HR MAX TEMP:  70; 6HR PCP: TRACE;

MARYSVILLE     CLEAR     64  61  88 SE7       30.13S
OLATHE IND     CLEAR     65  60  84 E6        30.14S
6HR MIN TEMP:  65; 6HR MAX TEMP:  71;

OLATHE EXE     CLEAR     65  59  81 E7        30.14R
6HR MIN TEMP:  65; 6HR MAX TEMP:  71;

SALINA         CLEAR     69  63  81 SE5       30.11S
6HR MIN TEMP:  67; 6HR MAX TEMP:  75;

TOPEKA BILLARD CLEAR     67  63  87 CALM      30.14R
6HR MIN TEMP:  65; 6HR MAX TEMP:  72;

TOPEKA FORBES  CLEAR     65  62  90 E5        30.13S
6HR MIN TEMP:  63; 6HR MAX TEMP:  71;

$$



USA.gov is the U.S. government's official web portal to all federal, state and local government web resources and services.